Tacoma, WA
on Thursday, February 28, 2013

Thursday
Previous Day Next Day
Daily Summary
 ActualAverage (KSEA)Record (KSEA)
Temperature
Mean Temperature °F 44°F  
Max Temperature 53°F 51°F 68°F (1968)
Min Temperature 42°F 38°F 24°F (1951)
Degree Days
Heating Degree Days 18 21  
Month to date heating degree days 606  
Since 1 July heating degree days 3254  
Cooling Degree Days 0 0  
Month to date cooling degree days 0  
Year to date cooling degree days 0  
Moisture
Dew Point 49°F   
Average Humidity 99    
Maximum Humidity 100    
Minimum Humidity 93    
Precipitation
Precipitation 0.56 in 0.12 in 1.46 in (1972)
Month to date precipitation 3.50  
Year to date precipitation 9.07  
Snow
Snow 0.00 in in 7.00 in (1962)
Month to date snowfall  
Since 1 July snowfall  
Snow Depth in   
Wind
Wind Speed 4 mph   
Max Wind Speed 13 mph   
Max Gust Speed mph   
Visibility 8 miles   
Events Rain   

Key: T is trace of precipitation, MM is missing value
Source: NWS Daily Summary
Time(PST)TemperatureDew PointHumidity Pressure Visibility Wind DirectionWind SpeedGust SpeedPrecipitationEvents Conditions
12:08 AM 44.6°F 44.6°F 100% 30.25 in 8.0 miles East 2.3 mph - N/A Rain Light Rain
12:18 AM 44.6°F 44.6°F 100% 30.25 in 7.0 miles ENE 2.3 mph - N/A Rain Light Rain
12:48 AM 44.6°F 42.8°F 93% 30.25 in 7.0 miles East 3.5 mph - N/A Rain Light Rain
12:53 AM 44.6°F 42.8°F 93% 30.25 in 6.0 miles East 3.5 mph - N/A Rain Light Rain
12:58 AM 43.9°F 43.7°F 99% 30.27 in 7.0 miles East 2.3 mph - 0.01 in Rain Light Rain
1:08 AM 44.6°F 44.6°F 100% 30.25 in 7.0 miles East 2.3 mph - N/A Rain Light Rain
1:23 AM 44.6°F 42.8°F 93% 30.24 in 6.0 miles ENE 3.5 mph - N/A Rain Light Rain
1:58 AM 44.6°F 42.8°F 93% 30.25 in 6.0 miles NE 1.2 mph - 0.03 in Rain Light Rain
2:08 AM 44.6°F 42.8°F 93% 30.24 in 6.0 miles Calm Calm - N/A Rain Light Rain
2:58 AM 43.5°F 43.3°F 99% 30.24 in 7.0 miles ENE 3.5 mph - 0.04 in Rain Light Rain
3:58 AM 43.3°F 43.2°F 99% 30.23 in 10.0 miles East 3.5 mph - 0.02 in Rain Light Rain
4:58 AM 42.8°F 42.6°F 99% 30.23 in 8.0 miles NNE 4.6 mph - 0.07 in Rain Rain
5:48 AM 42.8°F 42.8°F 100% 30.20 in 10.0 miles East 2.3 mph - N/A Rain Light Rain
5:58 AM 42.4°F 42.3°F 99% 30.22 in 10.0 miles East 2.3 mph - 0.05 in Rain Light Rain
6:58 AM 42.6°F 42.4°F 99% 30.21 in 10.0 miles East 1.2 mph - 0.03 in Rain Light Rain
7:53 AM 42.8°F 42.8°F 100% 30.19 in 9.0 miles NE 2.3 mph - N/A Rain Light Rain
7:58 AM 43.0°F 42.8°F 99% 30.21 in 10.0 miles NE 1.2 mph - 0.02 in Rain Light Rain
8:23 AM 42.8°F 42.8°F 100% 30.20 in 5.0 miles Calm Calm - N/A Rain Light Rain
8:30 AM 42.8°F 42.8°F 100% 30.20 in 5.0 miles Calm Calm - N/A Rain Light Rain
8:58 AM 43.2°F 43.0°F 99% 30.23 in 4.0 miles Calm Calm - 0.03 in Rain Light Rain
9:03 AM 42.8°F 42.8°F 100% 30.21 in 4.0 miles Calm Calm - N/A Rain Light Rain
9:28 AM 44.6°F 42.8°F 93% 30.21 in 7.0 miles SSE 2.3 mph - N/A Rain Light Rain
9:58 AM 44.4°F 44.2°F 99% 30.23 in 7.0 miles SSE 2.3 mph - 0.04 in Rain Light Rain
10:58 AM 46.9°F 46.8°F 99% 30.24 in 10.0 miles WSW 4.6 mph - 0.02 in Rain Light Rain
11:33 AM 48.2°F 48.2°F 100% 30.23 in 9.0 miles South 5.8 mph - N/A   Light Drizzle
11:58 AM 49.1°F 48.9°F 99% 30.25 in 10.0 miles South 6.9 mph - 0.01 in Rain Light Rain
12:28 PM 50.0°F 50.0°F 100% 30.24 in 10.0 miles South 6.9 mph - N/A Rain Light Rain
12:48 PM 51.8°F 50.0°F 94% 30.23 in 10.0 miles South 8.1 mph - N/A Rain Light Rain
12:49 PM 51.8°F 50.0°F 94% 30.23 in 10.0 miles SSE 8.1 mph - N/A Rain Light Rain
12:58 PM 51.3°F 50.9°F 99% 30.25 in 9.0 miles South 5.8 mph - 0.01 in Rain Light Rain
1:08 PM 51.8°F 51.8°F 100% 30.24 in 9.0 miles South 6.9 mph - N/A Rain Light Rain
1:13 PM 51.8°F 51.8°F 100% 30.23 in 9.0 miles South 6.9 mph - N/A Rain Light Rain
1:16 PM 51.8°F 51.8°F 100% 30.23 in 9.0 miles South 8.1 mph - N/A Rain Light Rain
1:21 PM 51.8°F 51.8°F 100% 30.23 in 10.0 miles South 8.1 mph - N/A Rain Light Rain
1:26 PM 51.8°F 51.8°F 100% 30.23 in 10.0 miles South 8.1 mph - N/A Rain Light Rain
1:30 PM 51.8°F 51.8°F 100% 30.23 in 10.0 miles South 6.9 mph - N/A   Overcast
1:35 PM 51.8°F 51.8°F 100% 30.23 in 10.0 miles South 5.8 mph - N/A   Overcast
1:36 PM 51.8°F 51.8°F 100% 30.23 in 10.0 miles South 5.8 mph - N/A   Light Drizzle
1:43 PM 51.8°F 51.8°F 100% 30.23 in 10.0 miles SE 5.8 mph - N/A   Overcast
1:58 PM 52.0°F 51.8°F 99% 30.26 in 10.0 miles South 5.8 mph - 0.01 in   Overcast
2:16 PM 51.8°F 51.8°F 100% 30.25 in 10.0 miles SSE 4.6 mph - N/A Rain Light Rain
2:21 PM 51.8°F 51.8°F 100% 30.25 in 10.0 miles SSE 3.5 mph - N/A Rain Light Rain
2:32 PM 51.8°F 51.8°F 100% 30.25 in 8.0 miles South 6.9 mph - N/A Rain Light Rain
2:52 PM 51.8°F 51.8°F 100% 30.26 in 3.0 miles South 5.8 mph - N/A Rain Light Rain
2:57 PM 51.8°F 51.8°F 100% 30.26 in 2.5 miles South 5.8 mph - N/A Rain Light Rain
2:58 PM 51.8°F 51.6°F 99% 30.28 in 2.5 miles South 5.8 mph - 0.06 in Rain Light Rain
3:03 PM 51.8°F 51.8°F 100% 30.27 in 3.0 miles South 5.8 mph - N/A Rain Light Rain
3:08 PM 51.8°F 51.8°F 100% 30.27 in 5.0 miles SSW 6.9 mph - N/A Rain Light Rain
3:23 PM 51.8°F 51.8°F 100% 30.28 in 6.0 miles South 4.6 mph - N/A Rain Light Rain
3:33 PM 51.8°F 51.8°F 100% 30.28 in 6.0 miles SSE 4.6 mph - N/A Rain Light Rain
3:48 PM 51.8°F 51.8°F 100% 30.28 in 5.0 miles SSE 5.8 mph - N/A Rain Light Rain
3:58 PM 52.0°F 51.8°F 99% 30.30 in 10.0 miles SSE 5.8 mph - 0.06 in Rain Light Rain
4:18 PM 51.8°F 51.8°F 100% 30.29 in 7.0 miles South 6.9 mph - N/A Rain Light Rain
4:23 PM 51.8°F 51.8°F 100% 30.29 in 9.0 miles South 5.8 mph - N/A Rain Light Rain
4:29 PM 51.8°F 51.8°F 100% 30.29 in 10.0 miles South 5.8 mph - N/A   Overcast
4:34 PM 51.8°F 51.8°F 100% 30.29 in 10.0 miles South 5.8 mph - N/A Rain Light Rain
4:39 PM 51.8°F 51.8°F 100% 30.28 in 8.0 miles SSE 5.8 mph - N/A Rain Light Rain
4:44 PM 51.8°F 51.8°F 100% 30.28 in 6.0 miles SSE 5.8 mph - N/A Rain Light Rain
4:54 PM 51.8°F 51.8°F 100% 30.28 in 10.0 miles South 5.8 mph - N/A   Overcast
4:58 PM 52.0°F 51.8°F 99% 30.30 in 10.0 miles South 5.8 mph - 0.03 in   Overcast
5:03 PM 51.8°F 51.8°F 100% 30.29 in 10.0 miles South 5.8 mph - N/A   Overcast
5:18 PM 51.8°F 51.8°F 100% 30.28 in 10.0 miles South 5.8 mph - N/A   Overcast
5:21 PM 51.8°F 51.8°F 100% 30.28 in 10.0 miles South 5.8 mph - N/A Rain Light Rain
5:31 PM 51.8°F 51.8°F 100% 30.28 in 10.0 miles South 5.8 mph - N/A Rain Light Rain
5:34 PM 51.8°F 51.8°F 100% 30.28 in 10.0 miles South 5.8 mph - N/A   Overcast
5:37 PM 51.8°F 51.8°F 100% 30.28 in 10.0 miles South 5.8 mph - N/A Rain Light Rain
5:52 PM 51.8°F 51.8°F 100% 30.28 in 5.0 miles South 6.9 mph - N/A Rain Light Rain
5:57 PM 51.8°F 51.8°F 100% 30.28 in 6.0 miles South 8.1 mph - N/A Rain Light Rain
5:58 PM 51.8°F 51.8°F 100% 30.30 in 7.0 miles South 8.1 mph - 0.01 in Rain Light Rain
6:03 PM 51.8°F 51.8°F 100% 30.28 in 10.0 miles SSW 8.1 mph - N/A Rain Light Rain
6:08 PM 51.8°F 51.8°F 100% 30.28 in 10.0 miles South 8.1 mph - N/A Rain Light Rain
6:13 PM 51.8°F 51.8°F 100% 30.28 in 10.0 miles SSW 6.9 mph - N/A   Overcast
6:15 PM 51.8°F 51.8°F 100% 30.28 in 10.0 miles SSW 6.9 mph - N/A   Overcast
6:23 PM 51.8°F 51.8°F 100% 30.29 in 10.0 miles SSW 6.9 mph - N/A Rain Light Rain
6:58 PM 51.8°F 51.6°F 99% 30.31 in 10.0 miles SSW 4.6 mph - 0.00 in Rain Light Rain
7:08 PM 51.8°F 51.8°F 100% 30.30 in 10.0 miles SSW 6.9 mph - N/A   Overcast
7:16 PM 51.8°F 51.8°F 100% 30.30 in 10.0 miles SSW 5.8 mph - N/A Rain Light Rain
7:29 PM 51.8°F 51.8°F 100% 30.31 in 10.0 miles SSW 8.1 mph - N/A   Overcast
7:35 PM 51.8°F 51.8°F 100% 30.31 in 10.0 miles SSW 9.2 mph - N/A Rain Light Rain
7:44 PM 51.8°F 51.8°F 100% 30.31 in 10.0 miles SSW 9.2 mph - N/A   Overcast
7:58 PM 51.6°F 51.4°F 99% 30.33 in 10.0 miles SSW 8.1 mph - 0.00 in   Overcast
8:33 PM 51.8°F 50.0°F 94% 30.30 in 10.0 miles SSW 9.2 mph - N/A   Overcast
8:58 PM 50.0°F 49.8°F 99% 30.33 in 10.0 miles SSW 8.1 mph - N/A   Mostly Cloudy
9:53 PM 51.8°F 50.0°F 94% 30.33 in 10.0 miles SSW 9.2 mph - N/A   Mostly Cloudy
9:58 PM 52.2°F 50.5°F 94% 30.35 in 10.0 miles SSW 11.5 mph - 0.01 in   Overcast
10:58 PM 52.0°F 50.9°F 96% 30.35 in 10.0 miles South 11.5 mph - N/A   Overcast
11:28 PM 53.6°F 51.8°F 94% 30.31 in 10.0 miles SSE 11.5 mph - N/A   Overcast
11:58 PM 52.5°F 51.3°F 95% 30.34 in 10.0 miles South 12.7 mph - 0.00 in Rain Light Rain
Moon Phase
Feb. 28 Mar. 04 Mar. 11 Mar. 19 Mar. 27
Sunrise:06:51 AM (PST) Moon Rise:09:45 PM (PST)2/28
Sunset:05:54 PM (PST) Moon Set:07:48 AM (PST)2/28

Copyright © 2014 The Weather Underground, Inc.